SCP
0 0 0 0 0 0 0 0 0 0 0 0 0 0 0 0 0 0 0 0 0 0 0 0 0 0 0 0 0 0 0 0 0 0 0 0 0 0 0 0 2 3 4 4
0 0 0 0 0 0 0 0 0 0 0 0 0 0 0 0 0 0 0 0 0 0 0 0 0 0 0 0 0 0 0 0 0 0 0 0 0 0 0 0 1 3 4 3
0 0 0 0 0 0 0 0 0 0 0 0 0 0 0 0 0 0 0 0 0 0 0 0 0 0 0 0 0 0 0 0 0 0 0 0 0 0 0 0 1 2 2 2
0 0 0 0 0 0 0 0 0 0 0 0 0 0 0 0 0 0 0 0 0 0 0 0 0 0 0 0 0 0 0 0 0 0 0 0 0 0 0 0 0 1 1 1
0 0 0 0 0 0 0 0 0 0 0 0 0 0 0 0 0 0 0 0 0 0 0 0 0 0 0 0 0 0 0 0 0 0 0 0 0 0 0 0 0 0 0 0
0 0 0 0 0 0 0 0 0 0 0 0 0 0 0 0 0 0 0 0 0 0 0 0 0 0 0 0 0 0 0 0 0 0 0 0 0 0 0 0 0 0 0 0
0 0 0 0 0 0 0 0 0 0 0 0 0 0 0 0 0 0 0 0 0 0 0 0 0 0 0 0 0 0 0 0 0 0 0 0 0 0 0 0 0 0 0 0
0 0 0 0 0 0 0 0 0 0 0 0 0 0 0 0 0 0 0 0 0 0 0 0 0 0 0 0 0 0 0 0 0 0 0 0 0 0 0 0 0 0 0 0
0 0 0 0 0 0 0 0 0 0 0 0 0 0 0 0 0 0 0 0 0 0 0 0 0 0 0 0 0 0 0 0 0 0 0 0 0 0 0 0 0 0 0 0
0 0 0 0 0 0 0 0 0 0 0 0 0 0 0 0 0 0 0 0 0 0 0 0 0 0 0 0 0 0 0 0 0 0 0 0 0 0 0 0 0 0 0 0
0 0 0 0 0 0 0 0 0 0 0 0 0 0 0 0 0 0 0 0 0 0 0 0 0 0 0 0 0 0 0 0 0 0 0 0 0 0 0 0 0 0 0 0
0 0 0 0 0 0 0 0 0 0 0 0 0 0 0 0 0 0 0 0 0 0 0 0 0 0 0 0 0 0 0 0 0 0 0 0 0 0 0 0 0 0 0 0
0 0 0 0 0 0 0 0 0 0 0 0 0 0 0 0 0 0 0 0 0 0 0 0 0 0 0 0 0 0 0 0 0 0 0 0 0 0 0 0 0 0 0 0
0 0 0 0 0 0 0 0 0 0 0 0 0 0 0 0 0 0 0 0 0 0 0 0 0 0 0 0 0 0 0 0 0 0 0 0 0 0 0 0 0 0 0 0
0 0 0 0 0 0 0 0 0 0 0 0 0 0 0 0 0 0 0 0 0 0 0 0 0 0 0 0 0 0 0 0 0 0 0 0 0 0 0 0 0 0 0 0
0 0 0 0 0 0 0 0 0 0 0 0 0 0 0 0 0 0 0 0 0 0 0 0 0 0 0 0 0 0 0 0 0 0 0 0 0 0 0 0 0 0 0 0
0 0 0 0 0 0 0 0 0 0 0 0 0 0 0 0 0 0 0 0 0 0 0 0 0 0 0 0 0 0 0 0 0 0 0 0 0 0 0 0 0 0 0 0
0 0 0 0 0 0 0 0 0 0 0 0 0 0 0 0 0 0 0 0 0 0 0 0 0 0 0 0 0 0 0 0 0 0 0 0 0 0 0 0 0 0 0 0
0 0 0 0 0 0 0 0 0 0 0 0 0 0 0 0 0 0 0 0 0 0 0 0 0 0 0 0 0 0 0 0 0 0 0 0 0 0 0 0 0 0 0 0
0 0 0 0 0 0 0 0 0 0 0 0 0 0 0 0 0 0 0 0 0 0 0 0 0 0 0 0 0 0 0 0 0 0 0 0 0 0 0 0 0 0 0 0
0 0 0 0 0 0 0 0 0 0 0 0 0 0 0 0 0 0 0 0 0 0 0 0 0 0 0 0 0 0 0 0 0 0 0 0 0 0 0 0 0 0 0 0
0 0 0 0 0 0 0 0 0 0 0 0 0 0 0 0 0 0 0 0 0 0 0 0 0 0 0 0 0 0 0 0 0 0 0 0 0 0 0 0 0 0 0 0
0 0 0 0 0 0 0 0 0 0 0 0 0 0 0 0 0 0 0 0 0 0 0 0 0 0 0 0 0 0 0 0 0 0 0 0 0 0 0 0 0 0 0 0
0 0 0 0 0 0 0 0 0 0 0 0 0 0 0 0 0 0 0 0 0 0 0 0 0 0 0 0 0 0 0 0 0 0 0 0 0 0 0 0 0 0 0 0
0 0 0 0 0 0 0 0 0 0 0 0 0 0 0 0 0 0 0 0 0 0 0 0 0 0 0 0 0 0 0 0 0 0 0 0 0 0 0 0 0 0 0 0
0 0 0 0 0 0 0 0 0 0 0 0 0 0 0 0 0 0 0 0 0 0 0 0 0 0 0 0 0 0 0 0 0 0 0 0 0 0 0 0 0 0 0 0
0 0 0 0 0 0 0 0 0 0 0 0 0 0 0 0 0 0 0 0 0 0 0 0 0 0 0 0 0 0 0 0 0 0 0 0 0 0 0 0 0 0 0 0
Wind_Speed
8 6 7 9 13 15 17 16 13 13 15 14 9 8 6 5 3 3 2 1 0 0 1 1 2 2 3 4 4 4 4 4 5 6 6 6 6 7 7 7 8 9 9 10
8 9 9 9 13 17 19 17 16 13 15 11 8 4 4 4 5 4 3 2 1 1 1 1 2 3 3 4 4 4 4 4 5 6 7 7 7 7 7 8 8 8 9 10
9 6 5 13 17 18 16 14 15 19 18 7 6 8 8 7 6 5 5 3 2 1 1 1 2 2 3 4 5 5 4 5 5 6 7 8 9 8 8 8 8 8 9 9
4 6 15 11 9 13 15 15 14 12 10 10 11 7 4 4 6 5 4 3 2 1 2 2 3 4 4 5 5 5 5 5 6 6 7 8 8 8 8 7 7 8 9 9
6 8 9 8 6 11 13 14 12 14 11 7 4 2 3 3 4 5 3 2 1 0 1 2 4 5 5 5 4 4 5 6 7 7 8 8 9 9 8 8 8 7 8 9
6 7 11 11 7 6 7 12 9 11 10 8 6 6 7 3 2 2 2 2 2 2 3 3 4 5 5 5 5 6 7 7 7 7 7 9 9 9 7 7 8 8 8 8
9 8 10 8 4 7 10 11 5 7 8 9 8 7 3 4 3 3 2 3 3 3 3 3 4 5 5 5 6 7 8 8 8 7 8 8 8 7 8 7 7 7 8 8
8 9 12 4 6 10 7 2 3 4 5 6 4 3 4 4 4 3 3 3 3 3 3 3 4 4 5 6 7 8 8 8 9 8 7 7 8 8 7 7 8 8 7 8
9 9 2 2 4 2 2 3 3 3 3 5 5 4 4 3 3 3 2 3 3 2 3 4 5 5 5 7 8 8 8 9 8 9 7 7 7 7 7 6 6 7 6 7
4 5 2 0 1 1 2 2 2 3 4 5 5 5 4 3 2 2 2 2 2 2 3 4 5 5 5 7 7 7 8 8 8 8 8 7 6 5 5 5 6 6 6 7
5 2 1 2 1 2 3 4 5 4 4 4 6 5 3 2 1 1 1 2 2 2 3 4 5 6 6 6 6 7 7 8 8 7 7 7 6 5 6 5 5 7 7 6
6 5 5 4 4 4 4 3 3 4 3 3 3 4 3 2 1 1 1 2 2 3 3 5 5 6 6 6 5 6 6 7 6 6 6 6 7 7 8 8 10 11 11 10
2 1 1 3 3 3 3 3 3 3 3 2 2 2 3 2 1 0 1 1 2 3 4 5 5 6 6 6 5 5 6 6 6 6 6 6 6 7 9 9 9 10 11 12
1 2 2 3 2 3 4 4 4 4 3 3 2 2 2 1 1 1 1 2 2 3 4 5 5 6 6 5 5 6 6 6 6 5 6 6 6 6 7 8 9 8 8 11
1 0 3 4 4 4 4 4 4 2 2 2 1 2 2 1 1 2 2 2 2 3 4 4 5 7 6 5 5 5 5 5 5 5 5 6 6 6 6 7 7 8 7 8
2 3 4 4 4 3 3 3 3 2 1 1 0 1 1 1 1 2 3 2 2 4 5 5 6 7 5 5 5 5 4 6 6 5 5 5 5 5 5 6 6 6 7 7
4 4 4 4 4 3 3 3 3 3 2 2 2 1 0 0 2 3 3 3 3 5 5 6 7 6 5 5 4 4 4 5 6 5 4 5 4 5 5 5 5 6 6 7
2 2 3 4 4 3 2 2 2 2 2 2 1 1 1 2 3 4 4 4 5 6 6 6 6 5 5 4 4 3 4 4 4 4 4 4 4 4 4 5 5 6 6 6
1 2 2 2 2 2 2 2 2 2 2 2 2 2 2 3 3 3 3 3 4 6 7 5 6 5 5 5 4 3 3 4 4 4 4 4 4 4 4 4 4 5 5 5
1 1 2 1 1 2 2 2 2 2 2 2 2 2 3 3 3 3 3 4 5 5 6 6 5 5 5 5 5 3 3 4 4 4 3 3 3 4 4 4 4 4 4 4
2 2 2 2 1 1 2 2 2 2 2 2 3 3 3 3 2 2 3 4 5 4 5 6 4 4 4 4 4 3 3 3 3 3 3 3 4 4 4 4 4 4 4 4
2 2 2 2 2 1 1 2 2 2 2 2 2 3 3 3 3 3 4 5 5 5 4 4 4 4 4 4 3 3 3 3 3 3 3 3 3 4 4 4 4 4 4 4
2 2 3 3 2 2 1 1 2 2 3 3 3 4 4 4 3 3 5 3 3 5 4 4 6 6 6 3 3 3 3 4 4 3 3 3 3 3 4 4 4 4 4 4
2 2 2 2 2 2 2 3 2 2 3 3 3 4 4 3 3 4 4 5 5 6 5 6 8 7 5 3 3 3 3 3 4 4 3 3 3 3 3 4 4 4 4 4
2 2 2 3 3 3 3 2 2 2 2 3 3 4 3 3 4 4 3 4 6 6 5 6 8 7 4 3 3 3 4 3 4 4 3 3 3 3 3 3 3 4 4 4
2 2 2 3 3 2 2 2 2 2 2 3 3 3 3 3 3 4 4 4 5 6 5 4 4 5 4 4 4 4 4 4 4 4 4 4 4 4 4 4 4 4 4 4
1 1 1 2 2 2 2 2 3 3 3 3 4 3 3 3 3 3 4 4 4 4 4 4 4 4 4 4 4 4 4 4 4 4 4 4 4 4 4 4 4 4 4 4
Wind_Direction
229 215 190 206 209 209 214 218 223 232 237 244 234 214 205 194 186 182 190 176 143 35 3 8 4 356 352 345 345 343 341 334 317 310 306 299 295 291 288 281 271 265 261 256
232 224 209 221 217 217 222 225 230 238 244 239 236 215 203 201 200 204 215 219 215 263 306 331 341 343 345 341 340 341 337 327 324 322 318 315 308 299 294 288 280 273 265 261
225 224 213 230 217 215 219 218 217 231 239 234 229 212 204 200 200 206 218 223 224 239 273 310 324 339 340 337 337 340 334 328 329 327 322 317 313 310 302 295 290 283 275 269
201 200 230 235 210 206 219 228 220 226 232 221 227 224 209 192 192 204 216 226 236 275 321 341 358 360 353 348 341 335 330 328 328 326 319 316 314 310 306 302 295 289 286 281
195 220 248 270 227 196 206 232 221 227 234 234 230 191 230 206 186 196 208 210 201 348 2 15 16 5 355 345 339 335 331 327 324 321 315 314 312 308 306 305 303 299 297 292
193 205 226 235 223 199 184 238 230 217 219 212 187 212 230 198 164 136 105 89 69 51 40 34 13 2 358 346 342 337 327 320 317 315 310 308 305 303 302 300 297 300 297 293
210 225 245 244 215 144 187 231 216 197 205 200 204 219 184 128 121 117 104 82 68 60 45 21 4 2 356 347 341 331 324 320 317 316 311 307 306 305 306 304 299 296 294 293
193 216 239 219 159 183 210 184 159 176 189 188 187 145 124 127 124 111 90 66 57 48 25 13 10 5 350 340 334 331 327 322 319 317 315 313 310 309 308 304 300 298 298 298
198 216 228 167 186 200 154 164 185 183 178 154 141 139 134 128 121 106 85 57 38 30 6 1 6 4 341 330 331 329 327 322 319 317 315 314 310 308 309 306 299 299 299 299
215 234 226 188 93 48 96 137 139 138 137 138 145 149 145 137 119 87 60 45 24 15 354 341 345 345 330 325 329 326 320 318 319 319 317 316 310 304 303 304 299 298 298 298
226 224 187 240 207 136 101 96 94 89 102 129 138 142 144 140 126 73 21 10 9 353 327 321 328 325 324 327 328 320 314 315 317 316 313 313 308 298 296 288 287 291 293 293
218 199 194 201 161 145 137 133 128 119 92 86 120 135 132 130 116 87 357 349 342 329 318 313 316 313 315 319 319 314 312 314 315 314 311 309 309 307 299 296 303 299 296 293
216 190 150 130 124 127 142 135 118 116 129 116 91 112 130 136 123 97 329 314 306 305 306 305 306 304 309 315 314 307 300 304 306 309 309 310 311 312 313 316 314 311 311 309
146 134 160 177 166 129 121 113 99 90 87 98 105 100 110 126 143 211 261 277 286 292 295 295 296 298 306 312 310 303 298 298 300 301 302 304 305 304 304 308 314 316 317 317
312 176 160 131 118 109 105 107 106 102 88 66 81 115 141 171 220 259 278 291 290 285 287 293 295 297 309 312 307 302 303 304 302 299 300 300 301 300 299 300 302 307 316 323
126 96 111 130 142 140 132 138 155 181 183 181 186 214 228 231 262 281 290 294 283 286 292 294 291 295 304 303 301 298 297 301 301 299 301 303 304 304 305 305 306 308 312 319
152 173 178 179 182 180 183 192 192 198 205 213 228 223 187 314 301 297 301 304 285 280 284 283 285 292 295 292 291 293 297 300 301 300 298 299 301 303 305 305 305 306 308 319
190 190 185 181 180 183 192 189 187 196 221 227 216 196 220 235 258 280 299 310 304 293 287 281 282 288 292 293 287 287 289 292 295 293 297 301 301 302 301 302 305 308 313 323
131 149 147 153 164 173 192 208 218 221 219 199 194 217 239 249 255 269 286 294 294 295 297 299 307 308 297 295 294 281 285 289 291 292 294 301 303 304 303 303 306 309 315 323
118 124 130 135 144 176 199 215 212 223 223 193 194 221 246 255 254 259 266 270 264 268 287 299 300 295 292 292 300 286 284 285 288 293 299 302 303 304 305 308 310 312 316 320
178 166 158 165 179 204 207 208 207 222 231 206 211 228 244 261 259 255 265 280 283 284 290 293 292 292 293 292 292 287 284 285 289 294 301 304 306 307 309 311 313 314 318 321
187 182 190 190 192 228 233 213 209 219 230 232 235 238 249 262 260 256 247 254 280 297 296 291 288 287 291 291 287 287 288 288 288 292 296 299 301 304 308 313 314 315 318 321
198 197 201 203 207 224 251 234 219 221 228 233 236 239 244 252 252 253 272 272 283 292 293 288 293 295 294 288 287 286 287 288 289 289 290 292 293 295 298 304 306 310 314 318
202 205 207 197 176 201 242 246 229 229 237 249 249 246 247 259 266 251 260 286 293 294 292 291 299 306 310 298 290 286 285 286 287 287 289 290 291 292 294 296 300 305 307 310
204 207 202 194 208 227 234 242 257 253 248 255 258 253 246 241 253 273 276 280 287 291 290 296 303 306 301 287 283 280 279 277 277 280 281 285 287 288 289 291 294 298 299 299
201 214 223 226 229 230 226 225 241 254 255 268 274 265 260 259 261 271 278 280 282 284 285 287 291 293 286 283 281 279 279 281 282 280 279 281 282 283 284 287 290 290 291 293
214 223 234 251 245 224 222 225 235 247 243 248 268 272 267 270 272 274 276 280 282 283 284 286 286 284 281 278 277 277 276 276 276 276 277 276 276 276 279 280 281 282 284 286